www.pogodaiklimat.ru
ПОГОДА в Бернсе
Время
и дата
07:53 26.05
08:53 26.05
09:53 26.05
10:53 26.05
11:53 26.05
12:53 26.05
13:53 26.05
14:53 26.05
15:53 26.05
16:53 26.05
17:53 26.05
18:53 26.05
19:53 26.05
20:53 26.05
21:53 26.05
22:53 26.05
23:53 26.05
00:53 27.05
01:53 27.05
02:53 27.05
03:53 27.05
04:53 27.05
05:53 27.05
06:53 27.05
07:53 27.05
08:53 27.05
09:53 27.05
10:53 27.05
11:53 27.05
12:53 27.05
13:53 27.05
14:53 27.05
15:53 27.05
16:53 27.05
17:53 27.05
18:53 27.05
19:53 27.05
20:53 27.05
21:53 27.05
22:53 27.05
23:53 27.05
00:53 28.05
01:53 28.05
02:53 28.05
03:53 28.05
04:53 28.05
05:53 28.05
06:53 28.05
Ветер
(напр.,м/с)
Видим. Явления Облачность Т
(С)
Тd
(С)
f
(%)
Тe
(С)
Тes
(С)
Комфортность P
(гПа)
Po
(гПа)
Тmin
(С)
Tmax
(С)
R
(мм)
R24
(мм)
S
(см)
З 3 16 км ясно +11.7 +0.6 46 +10 +14 1018.3 875.5
ЮЗ 4 16 км ясно +13.9 +1.1 42 +13 +18 1018.4 875.5
нст 3 16 км ясно +15.0 +1.1 39 +15 +25 1018.7 875.8 +1.1 +15.0
нст 2 16 км ясно +16.7 +1.7 36 +17 +33 опасность
простуды
1018.3 875.8
Ю 3 16 км ясно +18.9 +2.2 33 +19 +35 опасность
простуды
1017.7 875.5
нст 3 16 км ясно +20.0 +2.2 31 +21 +37 комфорт 1017.4 875.2
16 км ясно +21.7 +2.8 29 +22 +46 комфорт 1017.2 874.9
ЮЗ 4 16 км ясно +21.7 +1.7 27 +21 +32 комфорт 1017.1 874.9
нст 2 16 км ясно +21.7 +1.1 25 +21 +33 комфорт 1016.9 874.6 +15.0 +22.8
Ю 3 16 км 2/0 2700 m
[Ac]
+21.1 0.0 24 +21 +26 комфорт 1016.8 874.6
Ю 2 16 км 2/0 2700 m
[Ac]
+21.7 0.0 24 +21 +25 комфорт 1016.1 874.3
штиль 0 16 км ясно +20.0 +3.3 33 +20 +22 1016.0 874.6
С 3 16 км ясно +12.8 +2.8 51 +12 +12 1016.8 874.6
С 3 16 км ясно +11.7 +1.7 50 +10 +10 1017.2 875.2
ЮЗ 2 16 км ясно +7.8 +2.2 68 +6 +6 1017.9 875.5 +7.8 +22.2
СЗ 2 16 км ясно +7.8 +2.2 68 +6 +6 1018.0 875.5
СЗ 4 16 км ясно +8.3 +1.7 63 +5 +5 1017.8 875.8
СЗ 3 16 км ясно +6.1 +1.7 73 +3 +3 1018.2 876.0
СЗ 3 16 км ясно +5.6 +0.6 70 +3 +3 1018.2 876.0
СЗ 4 16 км ясно +6.1 +1.1 70 +3 +3 1018.3 876.3
СЗ 4 16 км ясно +6.7 +1.1 67 +3 +3 1018.2 876.3 +4.4 +9.4
СЗ 3 16 км ясно +6.1 +1.1 70 +3 +3 1018.7 876.6
З 2 16 км ясно +10.6 +2.8 58 +10 +10 1018.6 876.9
нст 2 16 км ясно +14.4 +3.9 49 +14 +16 1018.7 877.2
В 4 16 км ясно +18.3 +2.2 34 +18 +21 1019.2 877.2
ЮВ 4 16 км ясно +20.0 +3.3 33 +20 +26 1019.0 877.2
нст 3 16 км ясно +21.7 +2.8 29 +22 +32 комфорт 1019.1 877.2 +4.4 +21.7
нст 2 16 км ясно +23.3 +3.3 27 +23 +39 комфорт 1018.5 876.6
16 км ясно +23.9 +1.7 23 +23 +48 комфорт 1017.6 876.0
нст 3 16 км ясно +26.1 +1.1 20 +25 +41 комфорт 1017.0 875.8
нст 2 16 км ясно +26.7 +0.6 18 +25 +43 комфорт 1016.4 875.2
ЮВ 4 16 км ясно +26.7 +1.7 20 +25 +35 комфорт 1015.6 874.6
штиль 0 16 км 2/0 3600 m
[Ac]
+26.7 +1.7 20 +25 +39 комфорт 1015.0 874.0 +21.7 +27.8
Ю 3 16 км ясно +27.2 +1.7 19 +25 +32 комфорт 1014.1 873.1
В 2 16 км ясно +26.7 +2.2 20 +25 +29 комфорт 1013.2 873.1
В 5 16 км 8/0 3600 m
[Ac]
+22.8 +3.9 29 +23 +23 комфорт 1013.2 873.1
СВ 3 16 км 8/0 2400 m
[Ac]
+19.4 +5.6 40 +20 +20 1013.5 873.1
С 3 16 км 10/0 3300 m
[Ac]
+20.6 +3.9 33 +21 +21 комфорт 1014.2 874.3
В 4 16 км ясно +17.2 +3.3 39 +17 +17 1013.6 873.4 +17.2 +27.8
штиль 0 16 км ясно +13.3 +2.8 49 +13 +13 1014.1 873.7
СЗ 2 16 км 2/0 3600 m
[Ac]
+12.2 +4.4 59 +11 +11 1014.0 873.7
штиль 0 16 км ясно +9.4 +3.3 66 +9 +9 1013.2 872.8
З 3 16 км ясно +8.9 +3.9 71 +7 +7 1013.0 872.8
З 4 16 км ясно +10.0 +2.8 61 +8 +8 1012.8 872.6
СЗ 4 16 км ясно +9.4 +2.8 63 +7 +7 1013.0 872.8 +8.3 +17.2
СЗ 4 16 км ясно +9.4 +2.8 63 +7 +7 1013.2 872.8
З 2 16 км ясно +13.3 +5.0 57 +13 +13 1013.3 873.4
штиль 0 16 км ясно +16.7 +5.0 46 +17 +19 1013.5 873.4
Местоположение метеостанции Burns Municipal Airport: широта 43.5950 долгота -118.9564 высота над уровнем моря 1263 м.
В архиве по умолчанию представлена погода в Бернсе за последние 1-2 суток. Обновление информации о фактической погоде в базе происходит ежечасно! Архивные данные за месяц целиком и за предыдущие месяцы Вы можете получить, выбрав интересующий диапазон дат из раскрывающегося списка и нажав кнопку "Ввод!".
Внимание! Архив погоды МЕТАР в базе сайта по станциям, не включенным в климатический монитор, хранится не более 60 дней. Нет смысла пытаться выбрать более раннюю дату.
*Определитесь, кто Вы:
Внимание! Время в таблицах - местное (без учета летнего времени). Для получения всемирного времени необходимо вычесть поправку, которая равна -8 ч.
Смотрите также архив погоды в соседних городах и на ближайших метеорологических станциях:
Партнеры нашего сайта:      
Пояснения к столбцам:
  • Ветер - указаны скорость ветра в м/с - средняя за 10 мин, порывы в срок и между сроками (в фигурных скобках) и направление, откуда дует ветер: С - северный,
  • СВ - северо-восточный, В - восточный, ЮВ - юго-восточный, Ю - южный, ЮЗ - юго-западный, З - западный, СЗ - северо-западный.
  • Видимость - горизонтальная дальность видимости в метрах или километрах. При видимости от 1 до 10 км при отсутствии осадков обычно наблюдается дымка, при ухудшении видимости до 1 км и менее - туман. В сухую погоду видимость может ухудшаться дымом, пылью или мглою.
  • Явления - указаны атмосферные явления, наблюдавшиеся в срок или в последний час перед сроком; фигурными скобками обозначены явления, наблюдавшиеся между сроками (за 1-3 часа до срока); квадратными скобками обозначены град или гололедные отложения с указанием их диаметра в мм.
  • Облачность - указаны через наклонную черту общая и нижняя облачность в баллах и высота нижней границы облаков в метрах; квадратными скобками обозначены формы облаков: Ci - перистые, Cs - перисто-слоистые, Cc - перисто-кучевые, Ac - высококучевые, As - высокослоистые, Sc - слоисто-кучевые, Ns - слоисто-дождевые, Cu - кучевые, Cb - кучево-дождевые. Подробнее классификацию облаков см. в Атласе облаков (PDF).
  • T - Температура воздуха - температура, измеренная на высоте 2 м над землей.
  • Td - Температура точки росы - температура, при понижении до которой содержащийся в воздухе водяной пар достигнет насыщения.
  • f - Относительная влажность воздуха - влажноcть воздуха, измеренная на высоте 2 м над землей.
  • Te - Эффективная температура - температура, которую ощущает одетый по сезону человек в тени. Характеристика душности погоды. При расчете учитывается влияние влажности воздуха и скорости ветра на теплоощущения человека.
  • Tes - Эффективная температура на солнце - температура, которую ощущает человек, с поправкой на солнечный нагрев. Характеристика знойности погоды. Зависит от высоты солнца над горизонтом, облачности и скорости ветра. Ночью, в пасмурную погоду, а также при ветре 12 м/с и более поправка равна нулю.
  • P - Атмосферное давление - приведенное к уровню моря атмосферное давление.
  • Po - Атмосферное давление - измеренное на уровне метеостанции атмосферное давление.
  • Tmin - Минимальная температура - минимум температуры воздуха на высоте 2 м над землей.
  • Tmax - Максимальная температура - максимум температуры воздуха на высоте 2 м над землей.
  • R - Количество осадков - Количество выпавших осадков за период времени, мм. При наведении курсора мыши на число - период времени, за который выпало указанное количество осадков.
  • R24 - Количество осадков - Количество выпавших осадков за 24 часа, мм.
  • S - Снежный покров - Высота снежного покрова, см. При наведении курсора мыши на число - состояние снежного покрова и степень покрытия местности в баллах.